Lid_Strength_Index
3 3 3 3 3 3 3 3 3 2 2 2 4 4 3 3 4 3 7 4 0 -0 -1 1 1 2 2 4 4 4 9 11 10 10 9 6 7 5 4 5 5 4 4 3 2
3 4 4 4 4 4 3 3 3 3 2 2 2 4 3 3 5 6 1 -2 -1 -1 1 3 4 3 5 6 5 7 9 10 7 7 8 6 6 6 6 6 6 5 3 2 2
3 3 4 4 3 3 3 3 3 3 3 2 2 3 3 3 8 8 -1 -1 -1 -1 1 1 2 4 7 6 6 7 9 7 7 6 5 6 6 5 6 7 6 6 5 3 3
4 4 4 4 3 3 3 3 3 3 3 2 2 1 2 3 11 4 -1 -1 -1 -0 1 3 4 6 7 8 6 8 6 6 6 6 6 7 5 6 6 5 4 3 3 3 4
4 4 4 4 4 4 3 3 3 3 3 2 1 1 2 8 9 -0 -1 -1 -0 1 3 4 5 6 7 6 6 8 7 6 5 5 5 5 6 6 6 4 4 3 3 4 3
4 4 4 4 4 3 4 4 4 3 2 2 1 0 4 8 1 -0 -0 0 1 2 3 3 4 4 6 6 7 6 6 6 6 6 6 7 6 6 5 4 4 4 4 3 3
3 3 3 3 4 4 3 4 4 3 2 2 1 0 5 7 -0 -0 0 1 1 1 3 2 3 4 4 6 5 6 8 7 6 6 7 6 9 8 5 4 5 5 4 4 3
3 3 3 4 4 4 4 4 4 3 2 1 1 1 8 3 -1 1 0 1 1 1 2 1 1 3 5 5 6 8 8 10 7 7 6 7 10 7 5 5 5 5 4 4 3
3 3 4 4 4 4 4 4 3 2 1 1 2 5 8 1 2 1 0 2 2 2 1 1 2 5 5 7 8 8 10 9 8 6 7 8 9 7 5 5 6 5 5 4 4
3 3 3 4 4 4 4 4 2 1 0 0 1 6 6 5 4 2 1 1 3 3 4 4 5 6 7 8 11 10 10 9 9 7 7 8 9 7 6 6 6 5 5 5 4
3 3 3 4 4 4 5 3 4 5 3 5 7 7 6 4 4 4 1 2 4 7 9 9 9 10 9 7 8 8 9 9 8 6 8 9 8 7 6 6 6 6 5 5 4
3 4 4 4 4 5 5 4 4 4 6 5 5 6 4 4 5 4 3 5 6 7 7 9 10 9 9 9 9 9 10 9 8 7 8 8 9 7 7 7 6 6 6 5 4
4 4 4 4 5 5 4 3 3 4 6 6 5 5 5 3 5 5 5 5 6 8 8 8 7 8 9 10 10 9 9 9 9 7 7 8 8 8 7 6 6 5 5 4 4
4 4 5 5 5 4 4 3 3 4 7 6 5 4 4 4 6 4 4 5 6 7 8 7 7 8 8 9 9 10 9 9 8 9 11 8 12 8 8 8 7 6 5 5 4
4 4 5 6 5 4 3 4 5 5 12 6 6 3 5 6 6 6 5 5 7 7 7 8 8 8 8 7 7 8 7 8 8 9 10 10 11 8 7 7 6 6 6 5 4
5 5 6 6 5 4 4 4 4 8 12 8 7 7 7 7 6 6 5 5 6 7 7 7 7 7 8 8 7 8 9 10 9 9 11 10 10 9 9 7 6 6 5 5 4
6 6 7 5 4 4 4 4 8 11 7 8 8 8 8 8 7 7 7 7 8 9 9 8 7 6 7 7 8 8 10 11 12 12 12 10 10 8 8 7 6 6 5 5 4
7 7 7 5 4 4 4 6 11 9 9 7 8 8 8 8 7 7 8 8 8 9 8 9 10 7 6 7 8 9 9 11 13 13 11 11 11 8 6 7 5 5 5 4 4
7 5 4 3 4 4 4 9 9 8 8 8 8 8 8 7 7 7 7 7 7 8 8 9 9 7 7 7 8 10 10 10 12 13 12 10 9 6 5 6 6 6 6 5 4
3 3 3 3 4 4 6 10 8 6 7 7 9 8 9 8 8 8 8 7 7 7 7 8 10 8 7 7 7 8 9 11 10 13 13 11 11 9 8 8 7 7 6 5 4
3 4 3 5 4 4 8 8 7 5 7 7 8 8 8 9 8 8 9 7 7 7 7 7 9 8 8 8 9 8 8 11 10 11 12 12 10 7 8 8 8 7 6 6 5
5 6 2 5 6 8 8 8 9 7 6 6 6 7 7 8 8 8 9 8 7 7 7 8 8 9 9 7 8 8 9 9 10 12 11 11 10 7 8 7 7 7 6 5 5
6 5 3 4 7 7 8 9 8 7 8 7 7 7 7 8 9 8 8 7 7 7 7 7 9 11 9 8 7 9 9 9 10 9 11 11 10 6 7 7 7 7 6 5 5
6 6 5 5 7 8 8 8 8 7 8 8 7 7 7 8 8 8 8 8 8 6 4 5 9 9 11 10 8 9 9 9 9 10 10 10 9 7 8 8 7 6 6 5 5
6 8 8 8 7 8 9 9 9 9 8 7 8 8 8 9 9 9 9 8 8 6 7 7 9 9 8 9 9 9 9 9 9 9 10 8 9 7 7 8 7 6 5 6 6
6 7 6 7 7 7 9 8 8 8 8 8 8 9 9 9 8 9 9 9 8 8 9 10 9 9 10 9 9 10 8 8 8 9 9 8 8 6 6 6 7 6 6 6 5
5 5 6 9 7 7 7 7 7 7 7 7 8 8 8 8 7 7 8 8 8 9 9 10 10 11 12 11 11 12 9 9 8 7 7 9 7 7 8 7 7 6 6 6 5